Terminal Aerodrome Forecast
Issued by NWS Pueblo, CO

Home | Current Version | Previous Version | Text Only | Print | Product List | Glossary On
Versions: 1 2 3 4 5 6 7 8 9 10 11 12 13 14 15 16 17 18 19 20 21 22 23 24 25 26 27 28 29 30 31 32 33 34 35 36 37 38 39 40 41 42 43 44 45 46 47 48 49 50
000
FTUS45 KPUB 210524
TAFALS
TAF
KALS 210524Z 2106/2206 17007KT P6SM OVC100
     FM211200 18006KT 1SM -SHSN BR OVC015
     FM211400 18006KT 1/2SM SN FZFG OVC006
     FM211700 20008KT 3SM BR OVC012
     FM211900 23007KT P6SM OVC080=

USA.gov is the U.S. government's official web portal to all federal, state and local government web resources and services.